sat.trackr.live / text

‹ back to catalog

SPACEVAN-002

NORAD 68424 · 2026-067J

PAYLOAD ACTIVE UNKNOWN

§ Identity

Operator
Country
FR
Launch date
2026-03-30
Launch site
AFWTR
Launch vehicle
Mass (kg)
RCS (m²)

External: N2YO · Heavens-Above · Gunter

§ Orbital elements

Epoch: 2026-05-25T03:23:26.350080Z

Period
94.86 min
Inclination
97.4506°
Eccentricity
0.0003866
Mean motion
15.18096543 rev/d
Perigee alt
508.9 km
Apogee alt
514.3 km
Semi-major
6,889.7 km
B*
2.5623e-4
RAAN
103.9186°
Arg perigee
104.0863°
Mean anomaly
256.0801°
Rev number
844

§ Raw data

SPACEVAN-0021 68424U 26067J   26145.14127720  .00005158  00000+0  25623-3 0  99962 68424  97.4506 103.9186 0003866 104.0863 256.0801 15.18096543  8440

JSON: /api/v1/satellites/68424 · /tle

For live sub-satellite position, see the globe view (requires WebGL).

§ Visibility from observer

Set your observer location to see the next 7 days of passes ≥ 10°. The values pass through the URL so the page stays shareable.

No JS? Fill the form by hand. The geolocation button needs JavaScript.